Date,TemperatureHighF,TemperatureAvgF,TemperatureLowF,DewpointHighF,DewpointAvgF,DewpointLowF,HumidityHigh,HumidityAvg,HumidityLow,PressureMaxIn,PressureMinIn,WindSpeedMaxMPH,WindSpeedAvgMPH,GustSpeedMaxMPH,PrecipitationSumIn
2013-1-1,34.6,30.9,21.2,25.0,18.0,9.0,69,59,49,29.93,29.75,22,9,34,0.00
2013-1-2,28.5,20.3,7.9,15.0,9.9,3.0,82,65,53,30.12,29.92,17,5,23,0.00
2013-1-3,24.7,15.9,7.4,12.0,2.0,-99.9,69,57,37,30.16,30.03,16,-6,19,0.00
2013-1-4,35.6,26.6,13.6,22.0,16.9,9.0,84,68,56,30.02,29.84,14,3,22,0.00
2013-1-5,39.1,32.3,21.8,23.0,20.1,16.0,78,62,47,30.26,29.88,20,4,28,0.00
2013-1-6,40.5,30.6,23.4,28.0,23.6,18.0,85,76,59,30.23,29.94,8,1,13,0.01
2013-1-7,36.1,27.9,19.2,27.0,19.1,13.0,87,71,42,30.40,30.00,14,2,18,0.00
2013-1-8,45.0,31.4,16.6,29.0,23.1,12.0,87,73,51,30.39,30.29,12,2,20,0.00
2013-1-9,43.7,33.2,21.7,35.0,26.6,18.0,87,77,60,30.40,30.05,9,1,20,0.00
2013-1-10,43.4,37.8,28.4,31.0,24.1,22.0,79,59,47,30.53,30.08,23,8,38,0.00
2013-1-11,38.6,31.9,23.4,35.0,26.3,19.0,90,80,65,30.53,30.19,2,0,6,0.13
2013-1-12,42.0,38.9,36.5,40.0,36.4,34.0,91,90,89,30.22,30.12,3,0,3,0.01
2013-1-13,48.8,44.0,37.6,47.0,41.7,35.0,92,91,89,30.15,30.00,6,0,8,0.00
2013-1-14,53.5,46.6,37.4,49.0,39.1,27.0,93,77,49,30.25,29.89,18,3,26,0.01
2013-1-15,37.4,34.8,31.9,29.0,26.4,24.0,82,72,59,30.32,30.21,7,1,11,0.01
2013-1-16,34.4,32.2,29.8,31.0,28.0,22.0,90,85,63,30.24,29.82,7,0,8,0.32
2013-1-17,38.7,33.5,28.8,31.0,25.3,15.0,90,73,54,30.09,29.85,11,4,22,0.00
2013-1-18,29.4,21.4,16.8,15.0,4.2,-2.0,64,48,37,30.45,30.05,23,6,29,0.00
2013-1-19,44.3,35.1,18.5,32.0,21.7,7.0,73,59,46,30.39,29.89,22,4,24,0.00
2013-1-20,49.6,39.6,27.5,32.0,25.2,9.0,74,58,35,29.93,29.59,27,8,32,0.00
2013-1-21,27.2,23.4,19.8,19.0,11.6,6.0,84,62,44,30.10,29.80,12,2,23,0.01
2013-1-22,22.7,18.0,12.0,18.0,5.7,-3.0,86,61,38,30.10,29.76,18,7,23,0.01
2013-1-23,13.2,9.6,6.5,1.0,-5.0,-8.0,63,52,43,30.17,30.09,18,8,25,0.00
2013-1-24,17.2,10.1,3.3,-4.0,-6.4,-8.0,62,48,37,30.27,30.11,20,8,30,0.00
2013-1-25,21.1,14.9,8.8,11.0,-2.9,-8.0,79,46,35,30.34,30.07,16,5,19,0.00
2013-1-26,22.3,16.0,10.4,11.0,3.8,-3.0,81,60,38,30.27,30.02,21,6,22,0.00
2013-1-27,28.1,18.7,6.3,7.0,3.1,0.0,78,52,36,30.49,30.27,15,5,22,0.00
2013-1-28,29.1,24.0,14.3,26.0,15.2,4.0,87,71,38,30.47,30.01,7,0,10,0.12
2013-1-29,34.6,31.0,26.7,32.0,27.5,23.0,90,87,84,30.19,30.01,1,0,5,0.12
2013-1-30,57.6,48.6,34.4,54.0,46.1,32.0,93,91,88,30.14,29.45,15,4,26,0.16
2013-1-31,59.1,46.0,30.1,56.0,34.8,12.0,91,67,37,29.59,28.99,34,10,34,1.29
2013-2-1,30.0,26.0,20.8,18.0,10.0,5.0,75,51,40,30.11,29.60,19,9,24,0.00
2013-2-2,27.7,22.9,17.3,16.0,7.5,4.0,75,52,41,30.26,30.06,16,4,18,0.00
2013-2-3,28.4,24.3,19.7,20.0,17.6,15.0,83,76,66,30.06,29.75,4,0,9,0.00
2013-2-4,26.7,21.6,15.5,15.0,10.9,7.0,83,64,43,29.96,29.75,22,5,28,0.00
2013-2-5,26.4,23.6,19.8,20.0,15.2,10.0,82,70,61,30.02,29.93,3,0,6,0.02
2013-2-6,35.0,28.2,23.2,23.0,16.4,3.0,86,64,37,30.31,29.92,14,5,22,0.00
2013-2-7,31.5,23.8,14.5,11.0,6.5,4.0,77,49,33,30.53,30.32,9,1,9,0.00
2013-2-8,32.0,26.5,18.1,29.0,21.2,8.0,89,81,51,30.47,29.57,12,2,29,1.22
2013-2-9,23.7,19.3,15.9,18.0,12.5,4.0,88,76,56,30.23,29.58,23,14,30,0.18
2013-2-10,37.1,21.2,9.9,18.0,5.7,-1.0,73,53,29,30.43,30.24,11,2,17,0.02
2013-2-11,45.2,34.2,13.8,43.0,30.2,7.0,92,85,71,30.36,29.63,10,1,14,0.26
2013-2-12,41.1,37.9,34.4,37.0,27.4,22.0,85,67,56,29.89,29.63,17,8,30,0.01
2013-2-13,42.2,35.0,31.4,26.0,23.0,21.0,76,62,48,29.87,29.68,13,3,20,0.00
2013-2-14,44.2,34.1,26.7,26.0,22.1,19.0,84,64,40,30.00,29.71,6,1,11,0.00
2013-2-15,49.6,37.5,26.6,34.0,30.0,21.0,89,76,54,30.01,29.90,15,2,17,0.00
2013-2-16,36.7,33.5,28.4,31.0,26.5,18.0,89,76,59,29.94,29.69,12,3,20,0.00
2013-2-17,28.1,20.6,14.5,21.0,9.4,1.0,85,63,39,29.75,29.44,33,15,38,0.01
2013-2-18,27.9,20.5,13.5,3.0,0.9,-1.0,58,44,29,30.20,29.77,21,11,30,0.00
2013-2-19,46.0,34.0,18.3,42.0,24.4,3.0,90,69,49,30.21,29.58,8,1,18,0.19
2013-2-20,39.4,30.2,24.9,36.0,17.9,10.0,88,61,46,29.81,29.57,24,10,32,0.01
2013-2-21,30.2,26.1,23.3,16.0,13.0,10.0,68,58,51,30.21,29.81,24,12,32,0.00
2013-2-22,41.7,31.1,20.2,23.0,19.2,15.0,80,62,42,30.38,30.24,13,2,19,0.00
2013-2-23,36.8,33.6,29.7,31.0,27.6,23.0,89,78,71,30.32,29.88,5,0,9,0.20
2013-2-24,35.3,33.9,32.4,32.0,30.9,29.0,90,88,86,29.89,29.69,10,3,16,0.38
2013-2-25,38.6,33.9,28.5,30.0,29.0,25.0,90,82,69,30.24,29.89,10,1,11,0.00
2013-2-26,42.2,36.8,33.0,31.0,28.5,26.0,87,73,54,30.33,30.11,4,0,8,0.00
2013-2-27,42.3,38.3,34.4,39.0,35.3,29.0,90,89,78,30.11,29.58,11,2,17,1.53
2013-2-28,43.8,36.3,31.7,37.0,32.6,29.0,91,86,74,29.63,29.53,2,0,5,0.00
2013-3-1,42.1,36.3,31.4,32.0,28.0,26.0,90,73,56,29.68,29.53,15,4,19,0.00
2013-3-2,37.3,34.9,32.1,27.0,26.0,25.0,81,70,65,29.69,29.63,11,5,13,0.00
2013-3-3,35.9,32.0,29.7,28.0,25.0,21.0,87,75,67,29.65,29.57,9,6,14,0.00
2013-3-4,36.1,31.1,26.4,23.0,21.3,19.0,75,67,57,29.77,29.62,21,13,29,0.00
2013-3-5,43.5,35.1,28.9,31.0,24.9,20.0,82,67,53,30.07,29.77,15,5,21,0.00
2013-3-6,39.6,35.8,33.5,34.0,31.0,29.0,88,83,71,30.05,29.99,8,2,26,0.13
2013-3-7,34.4,32.3,30.1,29.0,27.5,26.0,88,83,75,30.02,29.96,20,5,28,0.14
2013-3-8,39.5,32.6,29.7,31.0,27.6,20.0,91,83,48,30.14,29.93,13,4,26,0.98
2013-3-9,53.5,40.2,28.8,28.0,20.6,16.0,84,49,24,30.34,30.14,13,2,20,0.00
2013-3-10,51.2,37.0,24.1,32.0,27.4,21.0,88,71,43,30.40,30.29,4,0,8,0.00
2013-3-11,51.3,41.4,34.8,40.0,34.5,30.0,88,78,55,30.33,30.14,8,2,15,0.00
2013-3-12,55.2,50.1,42.7,51.0,46.3,39.0,91,87,76,30.14,29.71,13,1,21,0.82
2013-3-13,45.2,39.9,31.7,39.0,28.2,21.0,86,65,39,29.79,29.72,16,6,20,0.00
2013-3-14,36.1,29.7,24.3,27.0,16.4,11.0,75,58,47,29.85,29.74,22,10,31,0.00
2013-3-15,39.1,30.5,23.8,29.0,16.3,7.0,80,57,35,29.89,29.67,20,8,29,0.00
2013-3-16,38.6,33.4,28.8,26.0,15.6,11.0,70,49,34,29.87,29.70,14,3,17,0.00
2013-3-17,34.8,30.4,26.5,19.0,13.1,6.0,68,50,33,30.30,29.87,20,6,29,0.00
2013-3-18,37.5,28.6,19.7,24.0,7.8,1.0,81,43,22,30.45,30.19,6,1,9,0.01
2013-3-19,35.7,32.2,28.7,33.0,28.8,25.0,90,87,83,30.18,29.61,10,2,19,0.73
2013-3-20,37.3,31.3,27.0,28.0,20.2,16.0,86,65,42,29.82,29.70,20,6,25,0.00
2013-3-21,33.4,29.6,24.9,27.0,21.8,16.0,86,73,54,29.83,29.62,8,2,13,0.00
2013-3-22,36.8,31.9,25.9,25.0,19.7,16.0,70,61,49,29.77,29.64,18,8,25,0.00
2013-3-23,38.8,34.5,28.9,24.0,20.9,18.0,74,59,45,29.82,29.68,23,10,31,0.00
2013-3-24,46.3,37.1,30.6,25.0,22.6,19.0,71,57,39,29.85,29.71,13,4,21,0.00
2013-3-25,43.0,36.7,31.3,29.0,26.7,23.0,79,67,52,29.77,29.48,10,1,18,0.00
2013-3-26,43.8,37.7,29.3,28.0,25.6,21.0,76,63,45,29.80,29.53,11,3,17,0.00
2013-3-27,47.5,37.6,24.1,31.0,25.2,20.0,87,63,38,29.88,29.77,18,4,23,0.00
2013-3-28,46.7,40.9,35.8,34.0,31.3,28.0,87,70,49,30.03,29.88,14,3,17,0.00
2013-3-29,51.2,43.1,30.8,34.0,30.8,27.0,89,64,41,30.06,29.98,11,4,19,0.00
2013-3-30,52.6,44.1,33.9,33.0,25.6,18.0,82,52,25,30.10,30.00,14,4,18,0.00
2013-3-31,54.9,42.5,28.4,41.0,28.1,23.0,88,61,30,30.12,29.69,9,2,21,0.08
2013-4-1,58.4,45.0,35.2,43.0,35.6,17.0,91,71,44,29.80,29.51,20,7,34,0.12
2013-4-2,36.9,33.3,29.5,20.0,16.2,11.0,62,50,35,29.97,29.80,22,10,29,0.00
2013-4-3,40.6,34.6,30.2,19.0,16.7,13.0,62,49,33,30.19,29.96,23,12,31,0.00
2013-4-4,52.9,38.8,29.8,29.0,19.7,13.0,73,49,25,30.32,30.07,11,4,18,0.00
2013-4-5,55.4,44.0,36.2,31.0,27.2,21.0,76,55,28,30.07,29.64,19,6,26,0.00
2013-4-6,46.1,37.5,30.9,28.0,15.4,7.0,68,43,21,30.32,29.89,25,8,29,0.00
2013-4-7,52.6,41.9,27.4,40.0,29.3,15.0,80,63,37,30.32,30.02,11,2,26,0.00
2013-4-8,67.4,51.5,43.5,42.0,39.1,33.0,90,66,29,30.06,29.97,9,2,12,0.00
2013-4-9,66.3,55.5,47.2,50.0,42.6,39.0,90,64,42,30.05,29.85,21,4,27,0.00
2013-4-10,64.9,53.4,45.7,49.0,45.4,41.0,89,76,56,29.97,29.82,7,1,10,0.25
2013-4-11,55.9,49.2,40.4,46.0,37.8,27.0,90,67,42,30.11,29.81,7,1,13,0.04
2013-4-12,39.6,38.1,37.1,35.0,33.7,31.0,89,84,70,30.12,29.76,6,2,14,0.55
2013-4-13,50.9,43.7,35.6,39.0,34.7,32.0,89,72,51,29.93,29.74,11,3,17,0.05
2013-4-14,48.5,42.8,33.5,38.0,31.5,26.0,89,66,44,30.22,29.92,22,6,24,0.00
2013-4-15,60.5,44.9,31.3,35.0,31.2,27.0,87,61,38,30.39,30.23,6,0,11,0.00
2013-4-16,62.1,49.7,34.7,49.0,40.9,32.0,90,73,50,30.39,30.09,19,3,19,0.00
2013-4-17,64.2,55.7,45.3,51.0,37.3,26.0,87,53,27,30.32,30.07,12,5,16,0.00
2013-4-18,61.7,50.3,37.1,45.0,34.8,27.0,86,59,32,30.40,30.13,8,1,16,0.00
2013-4-19,70.2,59.9,51.4,61.0,55.9,45.0,92,87,67,30.12,29.66,10,3,26,0.05
2013-4-20,62.5,51.8,43.5,60.0,40.1,27.0,91,67,42,30.23,29.59,20,8,27,0.82
2013-4-21,54.9,42.6,34.7,30.0,24.0,19.0,73,50,26,30.66,30.24,19,6,24,0.00
2013-4-22,53.9,43.4,32.7,32.0,28.8,25.0,84,59,34,30.72,30.56,9,1,15,0.00
2013-4-23,41.7,39.6,37.5,39.0,35.4,29.0,90,85,70,30.56,30.13,6,1,18,0.01
2013-4-24,72.8,52.9,40.6,46.0,41.8,36.0,90,70,29,30.07,29.81,16,4,20,0.01
2013-4-25,59.0,51.9,41.9,50.0,35.0,20.0,89,56,26,30.26,29.84,18,6,25,0.03
2013-4-26,62.9,51.1,38.4,40.0,32.9,26.0,82,52,33,30.40,30.26,9,1,11,0.00
2013-4-27,65.0,49.8,36.5,41.0,36.1,31.0,91,63,30,30.41,30.27,6,1,9,0.00
2013-4-28,68.0,52.8,37.8,42.0,33.8,26.0,91,54,28,30.33,30.20,8,1,15,0.00
2013-4-29,66.4,54.5,46.1,46.0,36.7,23.0,87,56,26,30.26,30.19,10,2,16,0.00
2013-4-30,71.1,56.6,42.5,37.0,28.5,18.0,71,38,16,30.33,30.23,7,0,10,0.00
2013-5-1,72.6,55.3,37.5,42.0,35.1,27.0,78,50,26,30.45,30.33,5,1,10,0.00
2013-5-2,79.0,56.6,41.5,48.0,40.8,35.0,91,60,25,30.45,30.29,7,1,17,0.00
2013-5-3,63.8,52.4,42.9,45.0,39.8,36.0,80,64,48,30.48,30.35,6,1,14,0.00
2013-5-4,65.1,52.3,39.9,44.0,35.8,22.0,89,58,24,30.36,30.25,4,0,12,0.00
2013-5-5,68.0,51.2,36.8,43.0,38.1,32.0,88,64,34,30.30,30.20,7,0,11,0.00
2013-5-6,74.7,56.4,42.2,50.0,43.8,38.0,88,66,33,30.26,30.11,9,1,10,0.00
2013-5-7,75.6,60.5,44.1,57.0,49.9,41.0,92,70,47,30.16,30.07,8,1,13,0.00
2013-5-8,69.5,60.9,52.6,62.0,56.8,50.0,92,86,67,30.15,30.01,10,1,16,0.23
2013-5-9,67.3,59.7,54.4,59.0,56.4,52.0,92,89,69,30.01,29.84,5,0,10,1.00
2013-5-10,76.9,64.6,54.1,59.0,53.5,50.0,93,71,39,29.95,29.87,5,1,11,0.00
2013-5-11,67.4,61.4,57.0,60.0,57.1,53.0,91,86,75,29.90,29.68,12,2,22,0.16
2013-5-12,67.5,59.8,52.0,58.0,49.8,31.0,92,72,43,29.80,29.56,17,4,24,0.08
2013-5-13,54.1,48.7,40.5,35.0,32.1,28.0,73,54,38,30.02,29.81,17,6,20,0.00
2013-5-14,55.6,48.6,39.3,36.0,32.4,27.0,80,55,36,30.05,29.98,14,4,20,0.00
2013-5-15,62.8,48.6,33.5,51.0,40.5,30.0,89,76,40,30.06,29.70,11,1,18,0.04
2013-5-16,78.0,62.4,45.6,52.0,43.9,37.0,93,58,24,29.78,29.64,19,4,22,0.01
2013-5-17,69.1,57.5,46.0,48.0,41.7,35.0,85,58,30,30.20,29.79,18,4,21,0.00
2013-5-18,68.9,57.3,43.1,49.0,43.5,35.0,92,64,33,30.30,30.21,9,1,14,0.00
2013-5-19,65.4,55.6,45.7,54.0,49.2,43.0,91,80,58,30.33,30.20,10,1,16,0.17
2013-5-20,79.0,66.7,55.5,67.0,59.9,53.0,92,80,58,30.18,29.91,12,2,15,0.02
2013-5-21,86.2,66.7,52.3,69.0,60.6,50.0,93,82,49,29.95,29.80,7,1,13,0.54
2013-5-22,75.5,61.6,50.5,68.0,57.3,48.0,92,86,75,30.00,29.82,16,1,19,0.07
2013-5-23,72.1,66.3,59.4,66.0,62.9,56.0,93,89,79,29.88,29.77,7,1,15,0.42
2013-5-24,68.7,61.6,48.6,63.0,57.5,46.0,92,86,72,29.80,29.63,13,4,20,0.33
2013-5-25,49.7,47.4,43.5,47.0,44.2,40.0,91,89,83,29.80,29.72,29,10,32,0.36
2013-5-26,54.6,49.1,42.5,45.0,41.0,38.0,87,74,61,30.12,29.75,18,10,28,0.01
2013-5-27,69.0,54.1,37.5,44.0,39.2,35.0,92,62,31,30.17,30.08,15,4,20,0.00
2013-5-28,72.3,58.8,42.5,55.0,44.6,39.0,91,64,32,30.22,30.15,6,0,12,0.00
2013-5-29,77.4,64.3,57.2,67.0,59.7,54.0,92,85,69,30.16,29.97,18,0,26,1.50
2013-5-30,85.3,73.0,61.9,71.0,64.6,60.0,93,77,51,30.08,29.99,9,2,18,0.01
2013-5-31,89.4,77.1,63.8,70.0,64.8,62.0,93,69,41,30.08,29.93,12,1,15,0.00
2013-6-1,87.1,77.2,63.6,69.0,64.9,60.0,88,68,48,29.96,29.86,13,2,15,0.00
2013-6-2,84.7,73.3,65.6,68.0,64.6,62.0,89,75,54,29.88,29.73,20,2,22,0.00
2013-6-3,75.9,68.0,63.6,67.0,62.1,43.0,92,82,48,29.82,29.74,10,2,18,0.71
2013-6-4,69.7,60.6,52.6,51.0,45.7,39.0,86,59,43,30.07,29.82,16,8,22,0.00
2013-6-5,72.2,60.8,48.6,51.0,46.5,42.0,89,62,37,30.18,30.07,5,1,11,0.00
2013-6-6,71.4,60.8,50.3,54.0,50.6,47.0,90,71,49,30.17,30.07,5,0,11,0.04
2013-6-7,60.0,56.3,53.7,57.0,53.6,51.0,91,90,88,30.07,29.75,6,0,16,3.02
2013-6-8,74.2,62.4,53.0,63.0,56.3,51.0,92,81,64,29.99,29.59,13,4,18,1.19
2013-6-9,75.7,65.2,54.1,57.0,54.7,52.0,92,71,46,30.15,30.00,13,2,17,0.01
2013-6-10,70.0,61.3,53.6,61.0,56.8,51.0,92,85,64,30.17,29.95,6,0,8,0.82
2013-6-11,68.7,60.2,57.0,62.0,57.2,55.0,92,90,80,29.93,29.53,9,1,14,1.38
2013-6-12,67.7,63.4,58.5,58.0,53.8,51.0,86,72,59,29.80,29.56,21,9,33,0.00
2013-6-13,62.3,55.4,49.6,57.0,51.8,47.0,92,88,78,29.81,29.62,5,0,11,0.82
2013-6-14,72.3,58.6,51.8,57.0,51.6,49.0,91,79,54,29.78,29.58,10,2,19,1.18
2013-6-15,74.8,63.9,52.5,54.0,49.1,44.0,90,62,34,29.93,29.78,13,3,19,0.00
2013-6-16,73.4,63.9,49.7,63.0,54.6,47.0,91,73,53,29.94,29.71,13,1,13,0.00
2013-6-17,82.3,68.5,57.7,64.0,58.9,55.0,92,74,43,29.89,29.77,13,2,30,0.28
2013-6-18,78.8,64.2,59.0,64.0,59.4,56.0,93,85,58,29.90,29.81,5,0,24,0.33
2013-6-19,72.8,63.0,54.3,57.0,51.1,44.0,91,68,36,30.13,29.87,8,1,14,0.02
2013-6-20,76.6,64.1,49.9,56.0,51.0,44.0,92,66,33,30.24,30.13,6,1,11,0.00
2013-6-21,79.1,67.5,55.7,64.0,58.1,52.0,90,73,54,30.25,30.18,9,1,13,0.00
2013-6-22,81.4,69.6,58.7,62.0,57.5,53.0,83,67,47,30.21,30.10,11,1,15,0.00
2013-6-23,85.6,73.7,62.1,69.0,64.3,58.0,87,73,54,30.15,30.00,11,1,18,0.00
2013-6-24,88.4,76.9,68.2,71.0,68.1,65.0,91,76,52,30.02,29.86,14,2,24,0.07
2013-6-25,87.5,75.7,66.1,72.0,67.0,63.0,91,76,52,29.93,29.73,24,2,24,0.38
2013-6-26,81.8,74.0,67.7,72.0,67.9,65.0,92,82,60,29.81,29.70,11,2,18,0.18
2013-6-27,70.2,67.0,64.3,67.0,63.1,-99.9,92,90,87,29.81,29.69,3,-11,6,0.21
2013-6-28,79.9,71.9,64.3,71.0,67.4,62.0,94,86,70,29.69,29.47,11,1,18,0.49
2013-6-29,80.5,73.7,69.6,69.0,67.6,66.0,92,81,65,29.69,29.47,9,1,18,0.00
2013-6-30,82.1,74.4,70.3,71.0,68.5,67.0,90,82,67,29.90,29.70,8,1,15,0.01
2013-7-1,80.2,73.7,70.6,73.0,70.1,68.0,92,88,77,30.05,29.90,8,0,15,0.03
2013-7-2,81.5,75.4,72.3,72.0,70.6,69.0,91,85,71,30.16,30.04,8,2,15,0.01
2013-7-3,84.0,76.7,70.4,73.0,70.2,68.0,91,81,66,30.19,30.13,10,3,18,0.01
2013-7-4,87.1,79.7,72.8,75.0,72.1,70.0,91,78,61,30.19,30.08,10,2,17,0.00
2013-7-5,88.9,81.0,71.5,75.0,71.8,68.0,90,75,55,30.15,30.02,10,2,18,0.00
2013-7-6,86.9,79.1,71.3,73.0,71.0,69.0,91,77,57,30.06,29.95,10,2,17,0.00
2013-7-7,88.8,77.9,70.1,76.0,71.3,67.0,92,81,60,30.00,29.88,4,0,19,0.18
2013-7-8,86.6,77.7,71.2,72.0,70.0,68.0,93,78,56,30.01,29.88,12,2,14,0.05
2013-7-9,77.7,71.0,67.1,70.0,66.7,65.0,92,86,74,30.06,29.99,3,0,7,0.01
2013-7-10,83.5,73.1,68.1,74.0,66.4,-99.9,92,83,70,30.03,29.77,7,-20,13,0.03
2013-7-11,80.5,74.5,68.3,72.0,69.8,65.0,93,85,68,29.89,29.76,8,1,12,0.66
2013-7-12,75.2,70.6,66.0,67.0,61.5,55.0,91,73,62,30.15,29.89,10,1,13,0.00
2013-7-13,76.5,70.4,64.8,71.0,66.2,59.0,92,86,78,30.28,30.15,3,0,7,0.26
2013-7-14,86.9,78.8,72.9,74.0,71.3,70.0,92,79,59,30.29,30.17,7,1,12,0.01
2013-7-15,87.2,78.9,71.8,75.0,71.2,69.0,93,79,56,30.18,30.07,9,2,13,0.00
2013-7-16,90.5,80.6,70.5,74.0,68.6,65.0,91,69,45,30.13,30.07,14,2,15,0.00
2013-7-17,90.3,80.0,70.1,75.0,69.9,67.0,92,73,48,30.15,30.00,6,1,11,0.00
2013-7-18,92.3,81.8,71.0,76.0,71.8,68.0,91,73,49,30.00,29.90,9,1,12,0.00
2013-7-19,92.0,83.0,74.2,78.0,74.0,72.0,91,75,54,29.91,29.71,21,3,21,0.00
2013-7-20,87.7,81.0,74.3,75.0,72.9,68.0,90,77,56,29.78,29.63,10,2,19,0.00
2013-7-21,83.9,76.5,69.9,69.0,64.4,61.0,83,67,49,29.95,29.79,5,1,10,0.00
2013-7-22,84.8,74.4,65.6,70.0,66.8,63.0,91,78,56,29.96,29.83,4,0,7,0.00
2013-7-23,84.5,74.2,70.8,74.0,70.4,67.0,93,88,67,29.82,29.51,11,1,19,1.60
2013-7-24,79.3,74.6,69.1,70.0,66.7,58.0,93,77,58,29.90,29.55,12,4,16,0.01
2013-7-25,68.3,60.1,58.0,58.0,54.5,50.0,91,82,68,30.06,29.91,9,1,11,1.51
2013-7-26,71.2,65.1,60.4,65.0,60.2,57.0,90,84,70,30.02,29.94,15,4,20,0.21
2013-7-27,80.6,69.8,59.5,66.0,62.2,57.0,93,78,54,30.04,29.97,8,1,10,0.00
2013-7-28,81.3,72.5,64.9,68.0,65.0,62.0,91,78,56,29.99,29.92,4,0,9,0.00
2013-7-29,82.7,72.8,65.2,71.0,66.1,62.0,91,80,60,30.02,29.93,12,1,18,0.35
2013-7-30,77.6,69.1,59.8,61.0,58.5,56.0,88,70,49,30.08,30.02,16,4,16,0.00
2013-7-31,79.1,68.7,57.8,64.0,59.0,55.0,91,73,48,30.12,30.02,5,0,11,0.00
2013-8-1,77.4,67.3,61.0,65.0,61.4,58.0,93,82,59,30.03,29.84,3,0,14,0.02
2013-8-2,79.0,71.0,64.4,65.0,62.2,59.0,92,75,51,29.86,29.77,10,3,15,0.23
2013-8-3,76.4,67.9,61.0,65.0,61.0,58.0,91,79,59,29.85,29.77,9,2,14,0.04
2013-8-4,75.7,65.8,55.0,59.0,56.0,53.0,92,72,48,29.89,29.77,12,4,19,0.02
2013-8-5,73.1,62.8,54.5,55.0,51.2,44.0,90,68,38,30.03,29.88,17,4,25,0.00
2013-8-6,78.3,63.6,49.5,57.0,51.8,47.0,92,69,42,30.12,30.03,7,0,11,0.00
2013-8-7,77.1,66.6,56.1,61.0,56.2,52.0,93,72,42,30.17,30.09,8,0,17,0.00
2013-8-8,78.7,71.1,65.0,70.0,65.9,59.0,91,84,74,30.10,29.99,9,1,14,0.09
2013-8-9,76.0,73.0,71.1,73.0,69.9,68.0,93,90,87,30.00,29.74,6,1,12,1.81
2013-8-10,78.5,72.7,65.2,70.0,60.5,50.0,91,67,44,29.99,29.78,18,5,21,0.01
2013-8-11,76.2,65.2,52.0,60.0,53.7,48.0,92,69,48,30.07,29.98,10,2,14,0.00
2013-8-12,79.3,68.5,58.7,63.0,58.6,55.0,92,73,47,30.02,29.90,7,0,11,0.00
2013-8-13,74.7,67.3,62.7,66.0,63.0,60.0,93,86,70,29.91,29.67,4,0,8,0.02
2013-8-14,70.8,65.1,56.8,64.0,54.8,50.0,91,70,56,29.96,29.66,19,8,26,0.00
2013-8-15,73.0,61.6,50.2,56.0,52.1,47.0,91,73,48,30.11,29.96,9,2,14,0.00
2013-8-16,75.5,63.7,51.6,60.0,54.2,49.0,92,74,45,30.19,30.10,6,1,12,0.01
2013-8-17,80.6,66.8,53.2,62.0,56.6,50.0,93,72,44,30.26,30.19,4,0,8,0.01
2013-8-18,77.3,66.2,57.5,63.0,58.7,55.0,92,78,50,30.26,30.08,3,0,6,0.00
2013-8-19,76.4,67.1,56.6,64.0,59.2,54.0,92,77,54,30.08,29.96,10,2,13,0.00
2013-8-20,80.8,69.8,59.0,65.0,60.7,56.0,93,75,49,30.09,29.98,9,2,13,0.00
2013-8-21,83.1,71.1,59.0,66.0,62.1,56.0,93,75,49,30.14,30.02,9,1,11,0.01
2013-8-22,78.5,71.0,62.7,71.0,66.5,60.0,93,86,77,30.03,29.82,9,1,11,0.01
2013-8-23,76.9,71.3,61.8,68.0,59.7,51.0,89,68,48,30.09,29.81,14,3,17,0.00
2013-8-24,78.0,65.5,55.4,55.0,50.1,46.0,87,60,34,30.33,30.09,12,1,14,0.00
2013-8-25,78.7,65.2,51.7,60.0,52.8,47.0,93,68,33,30.35,30.18,7,1,11,0.00
2013-8-26,76.2,67.9,60.5,66.0,61.2,56.0,90,79,65,30.19,29.87,8,1,12,0.19
2013-8-27,83.6,72.4,67.5,71.0,67.3,65.0,92,85,62,29.87,29.80,3,0,8,0.70
2013-8-28,85.5,72.8,63.2,69.0,65.5,61.0,93,80,49,29.91,29.82,2,0,8,0.00
2013-8-29,68.8,65.1,60.6,66.0,61.5,56.0,91,88,84,30.04,29.90,5,1,12,0.01
2013-8-30,79.2,67.9,60.4,68.0,62.4,56.0,91,83,63,30.01,29.82,9,1,12,0.03
2013-8-31,76.7,72.7,68.6,71.0,69.2,66.0,92,88,82,29.83,29.77,4,0,10,0.08
2013-9-1,79.4,72.9,68.1,73.0,69.6,66.0,93,89,79,29.84,29.77,6,0,18,0.19
2013-9-2,79.3,73.8,70.5,73.0,70.2,68.0,92,88,79,29.82,29.68,6,0,9,0.13
2013-9-3,75.4,70.7,64.9,70.0,65.9,58.0,92,85,77,29.80,29.67,11,1,12,0.21
2013-9-4,76.2,66.4,55.9,60.0,57.0,53.0,92,73,48,29.91,29.79,13,3,17,0.00
2013-9-5,69.6,62.1,51.3,62.0,53.3,42.0,92,75,44,30.11,29.86,10,2,14,0.07
2013-9-6,64.9,55.5,44.1,48.0,43.1,37.0,89,65,39,30.23,30.10,6,1,11,0.00
2013-9-7,74.5,60.4,45.2,56.0,49.2,43.0,91,69,39,30.09,29.86,10,2,12,0.00
2013-9-8,71.7,63.5,51.0,61.0,52.3,40.0,91,69,38,30.07,29.74,19,5,26,0.01
2013-9-9,67.6,56.0,41.8,50.0,44.4,38.0,89,67,47,30.22,30.08,9,1,14,0.00
2013-9-10,72.7,65.1,53.3,68.0,61.4,49.0,91,87,83,30.15,30.02,14,1,15,0.12
2013-9-11,90.8,77.3,69.7,76.0,70.8,66.0,93,81,58,30.07,29.93,8,1,20,0.00
2013-9-12,82.9,74.1,67.9,73.0,68.8,65.0,92,84,66,29.95,29.66,8,1,21,0.65
2013-9-13,74.6,68.3,60.8,66.0,62.6,55.0,92,82,65,29.74,29.55,16,4,21,0.02
2013-9-14,64.6,59.5,50.9,55.0,51.9,48.0,89,77,62,30.05,29.74,16,7,19,0.00
2013-9-15,67.5,56.2,45.5,51.0,47.9,43.0,92,76,47,30.16,30.05,6,1,10,0.01
2013-9-16,65.3,57.0,48.7,54.0,50.2,39.0,91,78,63,30.23,30.02,14,3,21,0.02
2013-9-17,61.7,50.1,40.6,44.0,38.8,35.0,89,67,43,30.41,30.23,11,2,15,0.00
2013-9-18,69.9,53.9,40.7,50.0,43.6,38.0,93,72,37,30.33,30.15,9,1,11,0.01
2013-9-19,76.2,58.3,44.4,54.0,48.8,42.0,92,74,43,30.15,30.04,4,0,9,0.01
2013-9-20,78.2,60.7,46.9,57.0,51.5,44.0,93,75,38,30.07,29.98,4,0,8,0.01
2013-9-21,74.0,64.7,55.0,64.0,59.6,52.0,93,84,62,30.01,29.69,12,1,15,0.00
2013-9-22,69.6,62.8,52.6,66.0,54.9,45.0,90,76,56,29.82,29.58,15,6,22,0.68
2013-9-23,60.9,52.9,45.5,47.0,43.7,41.0,87,72,53,30.00,29.82,17,5,26,0.00
2013-9-24,65.5,52.5,39.8,47.0,42.0,36.0,91,69,42,30.01,29.82,15,4,22,0.00
2013-9-25,67.1,55.1,41.6,54.0,46.8,39.0,92,75,56,29.97,29.86,11,1,15,0.00
2013-9-26,66.9,56.7,49.3,50.0,47.7,44.0,89,73,52,30.10,29.97,9,1,11,0.00
2013-9-27,63.2,57.1,48.9,53.0,50.1,46.0,90,78,65,30.25,30.10,10,1,13,0.00
2013-9-28,72.1,57.2,44.5,55.0,49.3,42.0,93,77,54,30.32,30.25,6,0,10,0.01
2013-9-29,69.9,55.6,46.2,53.0,45.9,40.0,93,73,36,30.25,30.09,6,0,9,0.01
2013-9-30,70.0,55.4,46.3,51.0,47.7,44.0,93,78,50,30.10,29.95,8,1,13,0.00
2013-10-1,73.9,58.1,44.0,60.0,50.3,41.0,93,77,49,29.96,29.85,13,2,15,0.01
2013-10-2,74.6,62.4,49.3,60.0,54.9,47.0,93,78,59,29.96,29.85,17,3,22,0.01
2013-10-3,73.8,59.1,47.2,55.0,49.0,44.0,93,73,35,30.08,29.95,4,0,9,0.01
2013-10-4,60.9,54.8,48.7,57.0,51.7,46.0,92,89,81,30.08,30.02,8,0,15,0.91
2013-10-5,70.2,62.0,57.3,62.0,57.9,55.0,93,86,73,30.10,30.04,5,0,5,0.24
2013-10-6,60.8,57.4,55.8,56.0,54.5,53.0,92,90,81,30.18,30.08,3,0,8,0.77
2013-10-7,75.2,65.6,56.6,68.0,61.7,54.0,94,87,73,30.09,29.80,13,3,22,0.25
2013-10-8,64.4,56.8,47.4,53.0,44.7,38.0,89,65,44,30.35,29.90,13,4,19,0.00
2013-10-9,62.0,52.4,46.5,46.0,41.8,37.0,87,69,48,30.44,30.34,6,0,14,0.00
2013-10-10,61.4,53.5,46.3,52.0,48.3,43.0,91,83,69,30.34,30.16,5,0,8,0.00
2013-10-11,70.3,58.4,51.5,57.0,50.6,44.0,91,76,61,30.15,30.07,6,1,14,0.00
2013-10-12,61.9,56.0,52.5,55.0,50.6,45.0,89,82,67,30.35,30.12,4,0,14,0.01
2013-10-13,58.0,51.7,40.9,49.0,46.1,38.0,90,81,67,30.42,30.34,3,0,11,0.00
2013-10-14,64.8,49.2,39.3,47.0,40.9,32.0,93,76,30,30.39,30.25,2,0,7,0.01
2013-10-15,68.9,56.7,47.3,52.0,48.5,44.0,91,76,52,30.27,30.15,3,0,5,0.00
2013-10-16,60.1,54.3,49.6,53.0,50.0,46.0,91,85,75,30.16,29.91,3,0,8,0.00
2013-10-17,71.0,59.9,49.4,58.0,55.2,47.0,93,85,62,29.90,29.71,7,1,11,0.03
2013-10-18,62.9,58.4,44.6,60.0,49.4,41.0,91,73,49,29.91,29.61,18,6,25,0.04
2013-10-19,63.1,51.0,38.3,47.0,41.4,36.0,91,72,47,29.98,29.74,6,0,11,0.00
2013-10-20,59.0,51.7,37.8,51.0,40.6,34.0,89,68,40,30.03,29.69,16,5,23,0.05
2013-10-21,66.0,48.6,34.4,42.0,37.6,31.0,91,69,38,30.14,30.00,8,0,14,0.00
2013-10-22,64.2,52.4,42.2,52.0,45.1,39.0,93,78,53,30.00,29.70,15,2,16,0.03
2013-10-23,49.4,43.0,33.8,40.0,34.7,31.0,91,74,53,29.79,29.59,6,1,11,0.00
2013-10-24,50.5,43.3,33.5,36.0,30.7,25.0,87,63,38,29.91,29.66,16,3,22,0.00
2013-10-25,48.0,40.7,30.4,34.0,29.7,26.0,85,66,48,30.17,29.91,18,5,24,0.00
2013-10-26,52.6,41.2,28.9,36.0,29.4,25.0,88,66,38,30.18,29.89,14,2,25,0.00
2013-10-27,51.5,46.6,34.4,37.0,33.9,29.0,81,62,45,30.08,29.82,16,4,22,0.01
2013-10-28,55.1,42.4,29.4,37.0,31.1,26.0,88,67,47,30.35,30.08,16,3,24,0.00
2013-10-29,48.7,38.1,30.1,29.0,24.1,21.0,78,58,37,30.44,30.35,10,1,12,0.00
2013-10-30,55.1,41.2,30.4,42.0,34.6,23.0,89,78,61,30.37,30.20,4,0,10,0.00
2013-10-31,61.0,48.9,33.4,58.0,45.7,31.0,91,88,82,30.25,29.81,5,0,16,0.06
2013-11-1,67.1,62.3,58.2,61.0,56.5,53.0,91,81,67,29.79,29.48,16,5,29,0.25
2013-11-2,64.0,53.5,43.5,53.0,43.9,40.0,91,72,43,29.72,29.58,11,1,18,0.01
2013-11-3,50.3,42.3,33.2,46.0,30.1,18.0,84,64,40,30.41,29.72,14,5,18,0.00
2013-11-4,43.3,34.0,26.3,21.0,17.7,15.0,78,53,32,30.71,30.42,8,1,13,0.00
2013-11-5,51.4,37.8,25.7,33.0,27.9,21.0,86,69,46,30.72,30.53,6,0,10,0.00
2013-11-6,59.1,48.7,37.8,49.0,40.9,32.0,88,76,54,30.52,30.06,12,1,20,0.00
2013-11-7,63.2,53.3,43.4,56.0,47.6,30.0,91,81,59,30.05,29.67,19,6,26,0.26
2013-11-8,45.6,38.1,28.5,33.0,27.5,23.0,85,67,47,30.11,29.82,22,6,29,0.00
2013-11-9,43.7,36.9,27.0,30.0,26.0,22.0,83,65,49,30.23,30.03,16,3,17,0.00
2013-11-10,53.8,45.4,39.6,40.0,35.8,30.0,88,70,51,30.02,29.75,30,4,41,0.03
2013-11-11,49.1,44.5,39.7,32.0,29.0,26.0,66,55,42,30.12,29.90,28,6,30,0.00
2013-11-12,49.3,36.5,29.3,37.0,25.8,18.0,87,66,50,30.20,29.90,17,10,32,0.05
2013-11-13,35.3,30.0,26.2,20.0,17.1,13.0,72,59,43,30.30,30.20,19,7,19,0.00
2013-11-14,49.3,36.4,27.6,24.0,16.4,-99.9,65,49,35,30.18,30.07,12,-29,20,0.00
2013-11-15,59.1,41.5,27.7,33.0,24.4,17.0,81,54,25,30.22,30.13,7,0,11,0.00
2013-11-16,61.0,43.2,34.5,37.0,33.1,31.0,87,70,37,30.32,30.20,8,0,12,0.00
2013-11-17,59.4,49.0,34.3,57.0,45.3,31.0,93,87,74,30.31,29.82,4,0,10,0.05
2013-11-18,62.6,57.9,48.5,59.0,45.4,32.0,93,66,39,29.81,29.53,18,5,28,0.69
2013-11-19,48.2,39.8,32.1,33.0,24.8,19.0,63,56,48,30.28,29.66,23,13,31,0.00
2013-11-20,42.9,32.1,24.0,21.0,16.0,10.0,73,54,27,30.62,30.29,16,5,24,0.00
2013-11-21,46.0,33.5,20.5,32.0,22.4,15.0,87,66,41,30.65,30.40,6,0,11,0.00
2013-11-22,48.1,44.7,40.6,45.0,40.7,32.0,91,86,70,30.39,29.84,3,0,6,0.11
2013-11-23,48.7,39.5,29.9,45.0,27.4,17.0,90,63,41,29.94,29.81,27,11,33,0.00
2013-11-24,29.5,24.1,20.2,19.0,10.2,6.0,69,56,42,30.24,29.84,30,17,38,0.00
2013-11-25,21.8,20.8,19.8,10.0,6.9,5.0,61,55,52,30.30,30.24,18,13,27,0.00